Zurück zum Katalog

DELTA 1 DEB

AktivSSO
NORAD 7173·DEBRIS·🇺🇸 United States

Gestartet Nov 6, 1973 von Vandenberg Space Force Base

Loading…

Nächste Überflüge (nächste 24 Stunden)

TLE

AktuellSource: Space-Track

Epoche: Sep 14, 2026, 08:00 UTC

1 07173U 73086EK  26257.33355120  .00000072  00000-0  95378-3 0  9990
2 07173 102.5604  45.9852 0223977 318.2820  68.9915 12.28306998188851

Verfolge DELTA 1 DEB in Echtzeit mit AllMySat

Download on the App Store